Location: Baumgarten
(49.0970°N, 12.7493°E)
Time: 01:55:14
(UTC+00:00)

Cosmos 2327 Rocket - Pass Details

Date: 05 July 2020
Orbit: 943 x 1009 km, 83.0° (Epoch: 04 August)

Event Time Altitude Azimuth Distance (km) Brightness Sun altitude
Exits shadow 21:52:12 19° 189° (S) 2,101 5.7 -16.0°
Maximum altitude 21:56:46 88° 280° (W) 969 4.5 -16.2°
Drops below altitude 10° 22:02:56 10° 9° (N) 2,689 7.8 -16.5°
Sets 22:05:25 0° 10° (N) 3,632 8.7 -16.6°
